Regional Weather Roundup
Issued by NWS

Home | Current Version | Previous Version | Text Only | Print | Product List | Glossary Off
Versions: 1 2 3 4 5 6 7 8 9 10 11 12 13 14 15 16 17 18 19 20 21 22 23 24 25 26 27 28 29 30 31 32 33 34 35 36 37 38 39 40 41 42 43 44 45 46 47 48 49 50

000
ASUS43 KDMX 020508
RWRIA

WEATHER ROUNDUP FOR IOWA
NATIONAL WEATHER SERVICE DES MOINES IA
1200 AM CDT MON MAY 02 2016

NOTE: "FAIR" INDICATES FEW OR NO CLOUDS BELOW 12,000 FEET WITH NO
SIGNIFICANT WEATHER AND/OR OBSTRUCTIONS TO VISIBILITY.

* - THESE STATIONS ARE NOT NWS STATIONS...THUS NOT UNDER NWS
QUALITY CONTROL.  THEY ALSO DO NOT REPORT WEATHER SUCH
AS PRECIPITATION OR FOG.

IAZ001>003-012>014-020>022-031>034-043>046-020600-
   NORTHWEST IOWA

CITY           SKY/WX    TMP DP  RH WIND       PRES   REMARKS
CARROLL *      CLOUDY    48  45  87 N6        30.14S
CHEROKEE *     PTCLDY    43  39  87 CALM      30.15S
DENISON *      CLOUDY    48 N/A N/A CALM      30.12F
LE MARS *      CLEAR     41  39  93 CALM      30.17F
ORANGE CITY *  CLEAR     45  39  81 CALM      30.16S
SHELDON *      PTCLDY    41  41 100 CALM      30.15S
SIOUX CITY     CLEAR     43  38  82 NW6       30.17S
SPENCER        PTCLDY    40  36  86 W5        30.15R
STORM LAKE *   CLOUDY    48  43  81 NW8       30.15S
$$

IAZ055>058-069>071-079>083-090>094-020600-
   SOUTHWEST IOWA

CITY           SKY/WX    TMP DP  RH WIND       PRES   REMARKS
ATLANTIC *     CLOUDY    46  45  93 N7        30.12F
AUDUBON *      CLOUDY    46  45  93 NW5       30.13F
CLARINDA *       N/A    N/A N/A N/A MISG        N/A
COUNCIL BLFS * CLOUDY    48  46  93 NW6       30.14S
CRESTON *      CLOUDY    46  45  93 NW5       30.13R
HARLAN  *      CLOUDY    48  45  87 N6        30.16F
LAMONI         CLOUDY    46  45  96 NW5       30.11R
RED OAK *      CLOUDY   N/A N/A N/A CALM      30.15R
SHENANDOAH *   MOCLDY    45  45 100 CALM      30.16S
$$

IAZ047>049-059>061-072>074-084-020600-
   CENTRAL IOWA

CITY           SKY/WX    TMP DP  RH WIND       PRES   REMARKS
AMES           CLOUDY    46  44  93 NW6       30.13R
ANKENY *       CLOUDY    48  46  93 N5        30.12S
BOONE *        CLOUDY    45  45 100 NW6       30.12S
CHARITON *     CLOUDY    46  46 100 NW7       30.10R
DES MOINES     MOCLDY    49  44  83 N7        30.11F
GRINNELL*      CLOUDY    46  45  93 N5        30.10S
KNOXVILLE *    CLOUDY    48  45  87 N9        30.08F FOG
MARSHALLTOWN   CLOUDY    46  44  93 W5        30.11R
NEWTON *       CLOUDY    48  48 100 N6        30.11R
PELLA *        CLOUDY    47  46  94 N5        30.11S
$$

IAZ004>006-015-016-023>025-035-036-020600-
   NORTH CENTRAL IOWA

CITY           SKY/WX    TMP DP  RH WIND       PRES   REMARKS
ALGONA *       CLOUDY    46  43  87 SW8       30.14S
CLARION *      CLOUDY    45  45 100 CALM      30.14R
ESTHERVILLE    MOCLDY    43  39  86 NW7       30.14R
FORT DODGE *   CLOUDY    46  41  81 CALM      30.14S
MASON CITY     CLOUDY    44  42  93 W6        30.13R
FOREST CITY *  CLOUDY    43  43 100 CALM      30.13R
WEBSTER CITY * CLOUDY    45  45 100 NW5       30.12S
IOWA FALLS *     N/A     41  39  93 CALM      30.13R FOG
$$

IAZ007>011-017>019-026>030-037>042-050>054-066-020600-
   NORTHEAST IOWA

CITY           SKY/WX    TMP DP  RH WIND       PRES   REMARKS
CEDAR RAPIDS   CLOUDY    47  46  97 N6        30.06S
CHARLES CITY * CLOUDY    45  45 100 NW5       30.12R
CLINTON *      CLOUDY    48  47  96 NE6       30.05R
DECORAH *      CLEAR     45  45 100 CALM      30.09R FOG
DUBUQUE        CLOUDY    47  43  86 NE7       30.06R
MONTICELLO *   CLOUDY    48  43  81 CALM      30.07R
OELWEIN *      CLOUDY    45  45 100 NW5       30.11R
WATERLOO       CLOUDY    45  43  93 NW5       30.10R
$$

IAZ064-065-067-068-078-020600-
   EAST CENTRAL IOWA

CITY           SKY/WX    TMP DP  RH WIND       PRES   REMARKS
DAVENPORT      CLOUDY    47  45  93 N7        30.04S FOG
IOWA CITY      CLOUDY    48  46  93 NW7       30.08R
MT. PLEASANT * CLOUDY    50  50 100 N9        30.07R
MUSCATINE *    CLOUDY    50  46  87 N5        30.06R
QUAD CITIES    CLOUDY    50  47  89 CALM      30.03R
$$

IAZ062-063-075>077-085>089-095>099-020600-
   SOUTHEAST IOWA

CITY           SKY/WX    TMP DP  RH WIND       PRES   REMARKS
BURLINGTON     CLOUDY    49  49 100 N6        30.05R
FAIRFIELD *    CLOUDY    48  46  93 N8        30.08R
FORT MADISON * CLOUDY    48  48 100 NW3       30.07R
KEOKUK *       CLOUDY    50  48  93 NW6       30.05S
OSKALOOSA *    CLOUDY    46  46 100 N9        30.09S FOG
OTTUMWA        CLOUDY    47  46  97 N9        30.08S
WASHINGTON *   CLOUDY    48  48 100 N6        30.08S
$$

ABBREVIATIONS USED IN REMARKS
   TC - TEMPERATURES IN CELSIUS
  WCI - WIND CHILL INDEX
   HX - HEAT INDEX
  VSB - VISIBILITY
$$





USA.gov is the U.S. government's official web portal to all federal, state and local government web resources and services.